Voltar ao catálogo

STARLINK-35940

AtivoComunicaçõesVLEO
NORAD 66617·PAYLOAD·🇺🇸 United States

Lançado Nov 23, 2025 de Vandenberg Space Force Base

Loading…

Próximas Passagens (próximas 24 horas)

TLE

AtualizadoSource: CelesTrak SupGP

Época: Sep 15, 2026, 02:56 UTC

1 66617C 25271A   26258.12270833  .00063786  00000+0  18844-2 0  2586
2 66617  53.1597 338.7259 0001188  89.9288  79.1496 15.34361647    14

Acompanhe STARLINK-35940 em tempo real com AllMySat

Download on the App Store